N2YJJ-2 Weather Reports


Display with metric or nautical units.
time (UTC)temp
F
wind
direction
speed
MPH
gust
MPH
rain 1hr
in
rain 24hr
in
rain mn
in
humidity
%
barometer
mb
20260502194003 50 356 2.0 3.0 0.00 0.03 0.00 59 1020.7
20260502193003 50 280 3.0 8.0 0.00 0.03 0.00 59 1020.8
20260502192003 50 336 1.0 8.0 0.00 0.03 0.00 61 1020.8
20260502191004 50 8 3.0 6.0 0.00 0.03 0.00 64 1020.8
20260502190004 50 287 1.0 9.0 0.00 0.03 0.00 61 1020.8
20260502184003 50 335 2.0 5.0 0.00 0.03 0.00 67 1020.8
20260502183003 48 306 1.0 6.0 0.00 0.03 0.00 68 1021.0
20260502182003 49 316 2.0 6.0 0.00 0.03 0.00 68 1021.0
20260502181002 49 319 1.0 8.0 0.00 0.03 0.00 68 1020.9
20260502164003 48 315 3.0 7.0 0.00 0.04 0.00 71 1021.0
20260502162004 47 333 2.0 5.0 0.00 0.04 0.00 72 1021.1
20260502161003 47 304 2.0 6.0 0.00 0.04 0.00 71 1021.1
20260502152003 47 308 3.0 10.0 0.00 0.04 0.00 66 1021.1
20260502151003 47 294 2.0 5.0 0.00 0.04 0.00 69 1021.0
20260502123004 41 303 2.0 5.0 0.00 0.04 0.00 81 1021.5
20260502122004 41 291 1.0 3.0 0.00 0.04 0.00 84 1021.5
20260502121001 40 304 1.0 3.0 0.00 0.04 0.00 86 1021.4
20260502114001 37 292 1.0 3.0 0.00 0.04 0.00 92 1021.6
20260502113001 36 271 1.0 3.0 0.00 0.04 0.00 93 1021.7
20260502111001 34 248 1.0 3.0 0.00 0.04 0.00 95 1021.6
20260502110002 34 261 1.0 2.0 0.00 0.04 0.00 95 1021.6
20260502105001 33 250 1.0 3.0 0.00 0.04 0.00 94 1021.4
20260502103001 33 236 2.0 3.0 0.00 0.04 0.00 94 1021.4
20260502102001 33 231 1.0 2.0 0.00 0.04 0.00 93 1021.2
20260502101002 33 229 0.0 2.0 0.00 0.04 0.00 93 1021.1
20260502091003 34 289 0.0 1.0 0.00 0.04 0.00 93 1020.6
20260502071002 36 283 0.0 0.0 0.00 0.04 0.00 91 1020.4
20260502070002 37 283 0.0 0.0 0.00 0.04 0.00 90 1020.4
20260502065002 37 283 0.0 0.0 0.00 0.04 0.00 89 1020.4
20260502064002 38 283 0.0 0.0 0.00 0.04 0.00 89 1020.3
20260502063001 38 283 0.0 1.0 0.00 0.04 0.00 89 1020.3
20260502062003 39 283 0.0 3.0 0.00 0.04 0.00 90 1020.3
20260502060003 39 273 0.0 2.0 0.00 0.04 0.00 91 1020.5
20260502055003 39 300 0.0 1.0 0.00 0.04 0.00 91 1020.5
20260502054003 39 289 0.0 1.0 0.00 0.04 0.00 91 1020.6
20260502053002 39 289 0.0 2.0 0.00 0.04 0.00 91 1020.5
20260502052003 39 347 0.0 3.0 0.00 0.04 0.00 91 1020.3
20260502051004 39 226 1.0 3.0 0.00 0.04 0.00 92 1020.2
20260502045003 39 322 1.0 7.0 0.00 0.04 0.00 92 1020.1
20260502044002 40 354 2.0 3.0 0.00 0.04 0.00 93 1020.0
20260502043002 40 326 2.0 6.0 0.00 0.04 0.00 94 1019.7
20260502042003 41 282 0.0 2.0 0.00 0.04 0.00 94 1019.7
20260502041002 41 245 0.0 1.0 0.00 0.04 0.00 95 1019.6
20260502035001 41 245 0.0 1.0 0.00 0.04 0.04 95 1019.4
20260502034003 41 245 0.0 0.0 0.00 0.04 0.04 94 1019.4
20260502033003 41 245 0.0 0.0 0.00 0.04 0.04 94 1019.4
20260502032002 41 245 0.0 1.0 0.00 0.04 0.04 94 1019.4
20260502031002 41 245 0.0 2.0 0.00 0.04 0.04 93 1019.5
20260502030002 41 245 0.0 1.0 0.00 0.04 0.04 93 1019.4
20260502025002 41 245 0.0 1.0 0.01 0.04 0.04 93 1019.5
20260502023002 42 245 0.0 0.0 0.03 0.04 0.04 92 1019.6
20260502022003 42 245 0.0 0.0 0.03 0.04 0.04 91 1019.6
20260502021002 42 245 0.0 1.0 0.03 0.04 0.04 90 1019.6
20260502015003 43 245 1.0 2.0 0.02 0.03 0.03 86 1019.6
20260502014002 44 352 0.0 0.0 0.01 0.02 0.02 84 1019.7
20260502013002 44 352 0.0 7.0 0.00 0.01 0.01 81 1019.4
20260502012002 44 350 1.0 6.0 0.00 0.01 0.01 83 1019.3
20260502011002 44 353 1.0 3.0 0.00 0.01 0.01 86 1019.2
20260502010002 44 250 0.0 2.0 0.00 0.01 0.01 85 1018.9
20260502005002 45 250 0.0 0.0 0.00 0.01 0.01 82 1018.7
20260502004003 45 250 0.0 0.0 0.00 0.01 0.01 80 1018.4
20260502003004 46 250 0.0 0.0 0.00 0.01 0.01 79 1018.3
20260502002003 46 250 0.0 0.0 0.00 0.01 0.01 78 1018.2
20260502001002 47 250 0.0 0.0 0.00 0.01 0.01 76 1018.2
20260502000003 48 250 0.0 0.0 0.00 0.01 0.01 78 1018.2
20260501235002 48 250 0.0 0.0 0.00 0.01 0.01 76 1018.1
20260501234002 48 250 1.0 2.0 0.00 0.01 0.01 74 1018.1
20260501233002 48 223 0.0 3.0 0.00 0.01 0.01 75 1017.9
20260501231002 48 266 0.0 3.0 0.00 0.01 0.01 73 1017.8
20260501230003 48 250 1.0 3.0 0.00 0.01 0.01 76 1017.8
20260501225002 48 203 2.0 5.0 0.00 0.01 0.01 74 1017.8
20260501224002 48 286 1.0 2.0 0.00 0.01 0.01 75 1017.7
20260501223003 48 216 1.0 3.0 0.00 0.01 0.01 75 1017.7
20260501221002 48 250 1.0 3.0 0.00 0.01 0.01 73 1017.8
20260501220002 48 279 0.0 3.0 0.00 0.01 0.01 73 1017.8
20260501215003 48 240 0.0 3.0 0.00 0.01 0.01 76 1017.8
20260501213003 48 221 2.0 3.0 0.00 0.01 0.01 77 1017.7
20260501212003 48 208 2.0 5.0 0.00 0.01 0.01 76 1017.7
20260501211003 48 193 1.0 5.0 0.00 0.01 0.01 79 1017.6
20260501210003 48 232 2.0 3.0 0.00 0.01 0.01 75 1017.5
20260501205004 48 208 2.0 3.0 0.00 0.01 0.01 77 1017.5
20260501204003 48 214 4.0 6.0 0.00 0.01 0.01 74 1017.6
20260501203003 48 200 1.0 7.0 0.00 0.01 0.01 80 1017.6
20260501202002 48 212 3.0 3.0 0.00 0.01 0.01 80 1017.6
20260501201003 48 153 3.0 5.0 0.00 0.01 0.01 81 1017.6
20260501200003 47 217 2.0 8.0 0.00 0.01 0.01 81 1017.8
20260501195003 46 147 2.0 7.0 0.00 0.01 0.01 84 1017.8